Flag for Cambodia Weather past 2 weeks in Phnom Penh, Cambodia

88 °F

Passing clouds.

Feels Like: 94 °F
Forecast: 76 / 91 °F
Wind: 18 mph from Northeast

Location: Phnom-Penh / Pochentong

Current Time: Nov 26, 2015 at 10:55:12 AM

Latest Report: Nov 26, 2015 at 10:00 AM

Visibility: N/A

Pressure: 29.86 "Hg

Humidity: 59%

Dew point: 72 °F

Location of Phnom PenhLocation

Historic Weather in Phnom Penh — Graph


Phnom Penh temperature yesterday

Maximum temperature yesterday: 93 °F (at 1:00 PM)
Minimum temperature yesterday: 82 °F (at 1:00 AM)
Average temperature yesterday: 87 °F

Past Weeks' High & Low Weather Summary

High95 °F (Nov 14, 3:30 PM)94% (Nov 12, 7:00 AM)32.49 "Hg (Nov 12, 7:00 AM)
Low79 °F (Nov 12, 10:00 PM)47% (Nov 14, 3:30 PM)29.71 "Hg (Nov 14, 3:00 PM)
Average86 °F70%29.82 "Hg
* Reported Nov 11 9:00 AM — Nov 26 9:30 AM, Phnom Penh, Weather by CustomWeather, © 2015

Note: Actual official high and low records may vary slightly from our data, if they occured in-between our weather recording intervals... More about our weather records


Phnom Penh weather history for previous 24 hours

Time TempWeatherWind HumidityBarometerVisibility
9:30 AM
Thu, Nov 26
88 °FPassing clouds.17 mph59%29.86 "HgN/A
9:00 AM86 °FPassing clouds.15 mph62%29.86 "HgN/A
8:30 AM84 °FPassing clouds.16 mph66%29.86 "HgN/A
8:00 AM84 °FPassing clouds.13 mph66%29.83 "HgN/A
7:30 AM82 °FPassing clouds.12 mph70%29.83 "HgN/A
7:00 AM81 °FPassing clouds.8 mph74%29.83 "HgN/A
6:30 AM81 °FPassing clouds.8 mph74%29.80 "HgN/A
6:00 AM79 °FPassing clouds.7 mph79%29.80 "Hg6 mi
1:00 AM82 °FPassing clouds.No wind74%29.80 "Hg6 mi
12:30 AM81 °FPassing clouds.1 mph79%29.80 "Hg6 mi
12:00 AM81 °FPassing clouds.1 mph79%29.74 "Hg6 mi
10:00 PM
Wed, Nov 25
82 °FPassing clouds.9 mph79%29.80 "Hg6 mi
9:30 PM86 °FPassing clouds.2 mph70%29.80 "Hg6 mi
9:00 PM86 °FPassing clouds.2 mph66%29.80 "Hg6 mi
8:30 PM86 °FPassing clouds.2 mph66%29.80 "Hg6 mi
8:00 PM86 °FPassing clouds.2 mph66%29.80 "Hg6 mi
7:00 PM88 °FPassing clouds.3 mph62%29.77 "Hg6 mi
6:30 PM88 °FPassing clouds.5 mph62%29.74 "Hg6 mi
6:00 PM88 °FPassing clouds.6 mph62%29.74 "Hg6 mi
5:30 PM88 °FPassing clouds.5 mph62%29.74 "HgN/A
4:30 PM90 °FScattered clouds.7 mph55%29.71 "HgN/A
4:00 PM90 °FScattered clouds.10 mph59%29.71 "HgN/A
3:30 PM91 °FScattered clouds.10 mph56%29.71 "HgN/A
3:00 PM91 °FScattered clouds.9 mph52%29.71 "HgN/A
2:30 PM90 °FScattered clouds.14 mph55%29.74 "HgN/A
1:00 PM93 °FScattered clouds.14 mph53%29.77 "HgN/A
12:30 PM91 °FScattered clouds.7 mph56%29.77 "HgN/A
12:00 PM91 °FScattered clouds.8 mph56%29.80 "HgN/A
11:30 AM90 °FScattered clouds.15 mph59%29.83 "HgN/A
11:00 AM88 °FScattered clouds.12 mph62%29.83 "HgN/A
10:30 AM88 °FPassing clouds.13 mph62%29.86 "HgN/A
10:00 AM86 °FPassing clouds.12 mph66%29.86 "HgN/A
Weather by CustomWeather, © 2015

See weather overviewHow to use our weather pages